This demonstration page uses our WeatherBlox Daily Observations layout. Learn more.

Hourly Observations for December 17, 2018

Temp ( °F °C ) Dew Point ( °F °C ) Humidity (%) Winds ( mph kmh ) Pressure ( in mb ) Visibility ( mi km ) Precip ( " mm )
12:15 am 00:15 Clear 34 1.1 28 -2 80 80 SSW 7 11 30.33 1027 10 16.0934 0 0
12:35 am 00:35 Clear 35 1.5 28 -2 78 78 SSW 7 11 30.33 1027 10 16.0934 0 0
12:55 am 00:55 Clear 35 1.5 28 -2 78 78 SW 7 11 30.33 1027 10 16.0934 0 0
1:15 am 01:15 Clear 35 1.6 28 -2.1 77 77 SSW 6 9 30.3 1026 10 16.0934 0 0
1:35 am 01:35 Clear 34 1.3 28 -2.4 77 77 SW 6 9 30.33 1027 10 16.0934 0 0
1:55 am 01:55 Clear 33 0.8 28 -2.5 79 79 SW 6 9 30.33 1027 10 16.0934 0 0
2:15 am 02:15 Clear 34 1.1 28 -2.5 77 77 SW 7 11 30.33 1027 10 16.0934 0 0
2:35 am 02:35 Clear 33 0.6 27 -2.7 79 79 SW 3 6 30.33 1027 10 16.0934 0 0
2:55 am 02:55 Clear 33 0.8 27 -2.7 78 78 SW 7 11 30.33 1027 10 16.0934 0 0
3:15 am 03:15 Clear 33 0.6 28 -2.5 80 80 SW 9 15 30.33 1027 10 16.0934 0 0
3:35 am 03:35 Clear 33 0.5 28 -2.5 81 81 SW 9 15 30.3 1026 10 16.0934 0 0
3:55 am 03:55 Clear 32 0.2 28 -2.5 82 82 SW 8 13 30.3 1026 10 16.0934 0 0
4:15 am 04:15 Clear 32 0 27 -2.6 83 83 SSW 6 9 30.3 1026 10 16.0934 0 0
4:35 am 04:35 Clear 32 0.1 28 -2.5 83 83 SSW 5 7 30.3 1026 10 16.0934 0 0
4:55 am 04:55 Clear 32 0 27 -2.6 83 83 SSW 5 7 30.3 1026 10 16.0934 0 0
5:15 am 05:15 Clear 31 -0.5 26 -3.3 82 82 SSW 3 6 30.3 1026 10 16.0934 0 0
5:35 am 05:35 Clear 29 -1.7 26 -3.5 88 88 S 3 6 30.3 1026 10 16.0934 0 0
5:55 am 05:55 Clear 30 -1.2 26 -3.2 86 86 S 5 7 30.3 1026 10 16.0934 0 0
6:15 am 06:15 Clear 29 -1.5 26 -3.3 88 88 S 5 7 30.3 1026 10 16.0934 0 0
6:35 am 06:35 Clear 28 -2.1 25 -3.7 89 89 S 6 9 30.33 1027 10 16.0934 0 0
6:55 am 06:55 Clear 27 -2.7 25 -4 91 91 S 5 7 30.33 1027 10 16.0934 0 0
7:15 am 07:15 Clear 27 -2.8 25 -3.9 92 92 S 6 9 30.3 1026 10 16.0934 0 0
7:35 am 07:35 Clear 28 -2.3 26 -3.5 92 92 S 7 11 30.3 1026 10 16.0934 0 0
7:55 am 07:55 Sunny 29 -1.4 27 -3 89 89 S 8 13 30.27 1025 10 16.0934 0 0
8:15 am 08:15 Sunny 30 -1.1 26 -3.2 86 86 S 8 13 30.27 1025 10 16.0934 0 0
8:35 am 08:35 Sunny 31 -0.7 27 -2.8 86 86 S 7 11 30.27 1025 10 16.0934 0 0
8:55 am 08:55 Sunny 32 -0.1 28 -2.4 85 85 S 7 11 30.27 1025 10 16.0934 0 0
9:15 am 09:15 Sunny 34 1.3 29 -1.7 81 81 SSW 10 17 30.24 1024 10 16.0934 0 0
9:35 am 09:35 Sunny 36 2.2 29 -1.5 77 77 SSW 8 13 30.24 1024 10 16.0934 0 0
9:55 am 09:55 Sunny 37 3 30 -1 75 75 SSW 9 15 30.24 1024 10 16.0934 0 0
10:15 am 10:15 Sunny 38 3.6 31 -0.6 74 74 SSW 9 15 30.24 1024 10 16.0934 0 0
10:35 am 10:35 Sunny 40 4.5 31 -0.4 71 71 SSW 12 19 30.21 1023 10 16.0934 0 0
10:55 am 10:55 Sunny 41 5.1 32 -0.2 69 69 SSW 9 15 30.21 1023 10 16.0934 0 0
11:15 am 11:15 Sunny 42 5.7 32 0 67 67 SSW 12 19 30.18 1022 10 16.0934 0 0
11:35 am 11:35 Sunny 44 6.5 32 0 64 64 SSW 13 20 30.18 1022 10 16.0934 0 0
11:55 am 11:55 Sunny 45 7.2 32 0.2 61 61 SSW 12 19 30.15 1021 10 16.0934 0 0
12:15 pm 12:15 Sunny 47 8.3 33 0.4 58 58 SSW 13 20 30.15 1021 10 16.0934 0 0
12:35 pm 12:35 Sunny 48 9.1 33 0.3 54 54 SSW 16 26 30.15 1021 10 16.0934 0 0
12:55 pm 12:55 Sunny 49 9.7 33 0.5 53 53 SSW 15 24 30.15 1021 10 16.0934 0 0
1:15 pm 13:15 Sunny 51 10.6 34 0.9 51 51 SSW 14 22 30.09 1019 10 16.0934 0 0
1:35 pm 13:35 Sunny 51 10.5 35 1.7 55 55 S 10 17 30.09 1019 10 16.0934 0 0
1:55 pm 13:55 Sunny 51 10.6 35 1.9 55 55 S 13 20 30.09 1019 10 16.0934 0 0
2:15 pm 14:15 Sunny 51 10.3 35 1.7 56 56 S 12 19 30.06 1018 10 16.0934 0 0
2:35 pm 14:35 Sunny 51 10.5 35 1.9 56 56 SSE 10 17 30.06 1018 10 16.0934 0 0
2:55 pm 14:55 Sunny 51 10.5 35 1.9 56 56 S 13 20 30.06 1018 10 16.0934 0 0
3:15 pm 15:15 Sunny 51 10.5 35 1.5 54 54 S 13 20 30.06 1018 10 16.0934 0 0
3:35 pm 15:35 Sunny 50 10 35 1.6 56 56 S 12 19 30.06 1018 10 16.0934 0 0
3:55 pm 15:55 Sunny 48 9.1 34 1.2 58 58 S 9 15 30.09 1019 10 16.0934 0 0
4:15 pm 16:15 Sunny 47 8.5 35 1.4 61 61 S 8 13 30.06 1018 10 16.0934 0 0
4:35 pm 16:35 Sunny 46 7.7 34 1 63 63 SSE 9 15 30.06 1018 10 16.0934 0 0
4:55 pm 16:55 Sunny 45 7.3 32 0.1 61 61 S 10 17 30.06 1018 10 16.0934 0 0
5:15 pm 17:15 Clear 43 6.2 32 0 65 65 S 12 19 30.06 1018 10 16.0934 0 0
5:35 pm 17:35 Clear 43 6.3 32 -0.1 64 64 SSE 8 13 30.06 1018 10 16.0934 0 0
5:55 pm 17:55 Clear 41 4.8 31 -0.4 69 69 SSE 6 9 30.09 1019 10 16.0934 0 0
6:15 pm 18:15 Clear 39 4.1 31 -0.3 73 73 S 9 15 30.09 1019 10 16.0934 0 0
6:35 pm 18:35 Clear 40 4.2 32 -0.1 74 74 S 8 13 30.09 1019 10 16.0934 0 0
6:55 pm 18:55 Clear 40 4.6 32 -0.2 71 71 S 9 15 30.09 1019 10 16.0934 0 0
7:15 pm 19:15 Clear 40 4.3 32 -0.2 73 73 S 12 19 30.09 1019 10 16.0934 0 0
7:35 pm 19:35 Clear 38 3.6 32 -0.2 76 76 S 12 19 30.09 1019 10 16.0934 0 0
7:55 pm 19:55 Clear 39 4.1 32 -0.2 74 74 S 10 17 30.09 1019 10 16.0934 0 0
8:15 pm 20:15 Clear 39 3.8 31 -0.5 74 74 S 12 19 30.09 1019 10 16.0934 0 0
8:35 pm 20:35 Clear 39 3.8 31 -0.5 74 74 S 12 19 30.09 1019 10 16.0934 0 0
8:55 pm 20:55 Clear 38 3.2 31 -0.5 77 77 S 10 17 30.06 1018 10 16.0934 0 0
9:15 pm 21:15 Clear 37 3 31 -0.5 78 78 S 8 13 30.06 1018 10 16.0934 0 0
9:35 pm 21:35 Clear 38 3.1 31 -0.4 78 78 S 12 19 30.06 1018 10 16.0934 0 0
9:55 pm 21:55 Clear 37 3 31 -0.5 78 78 S 12 19 30.06 1018 10 16.0934 0 0
10:15 pm 22:15 Clear 38 3.3 31 -0.5 76 76 S 15 24 30.06 1018 10 16.0934 0 0
10:35 pm 22:35 Clear 39 3.7 31 -0.6 74 74 S 16 26 30.06 1018 10 16.0934 0 0
10:55 pm 22:55 Clear 38 3.1 31 -0.7 76 76 S 15 24 30.06 1018 10 16.0934 0 0
11:15 pm 23:15 Clear 37 2.8 31 -0.7 78 78 S 14 22 30.06 1018 10 16.0934 0 0
11:35 pm 23:35 Clear 37 3 30 -1 75 75 S 12 19 30.06 1018 10 16.0934 0 0
11:55 pm 23:55 Clear 37 2.8 30 -0.9 77 77 S 10 17 30.06 1018 10 16.0934 0 0

Powered by AerisWeather